Weather Roundup
Issued by NWS

Home | Current Version | Previous Version | Graphics & Text | Print | Product List | Glossary Off
Versions: 1 2 3 4 5 6 7 8 9 10 11 12 13 14 15 16 17 18 19 20 21 22 23 24 25 26 27 28 29 30 31 32 33 34 35 36 37 38 39 40 41 42 43 44 45 46 47 48 49 50

000
NZUS93 KARX 300010
HRRWXR

CURRENT HOURLY OBSERVATIONS ACROSS
MUCH OF THE UPPER MISSISSIPPI VALLEY
NATIONAL WEATHER SERVICE LA CROSSE WI
700 PM CDT FRI JUL 29 2016


...SOUTHEAST MINNESOTA...


CITY           SKY/WX    TMP DP  RH WIND       PRES   REMARKS
ROCHESTER      MOSUNNY   74  61  63 N9        30.03S
ROCHESTER/MAYO MOCLDY    74  58  57 N5        30.03S
WINONA         CLOUDY    73  61  64 CALM      30.00S
AUSTIN         CLOUDY    72  61  68 NE5       30.02S
ALBERT LEA     CLOUDY    72  61  68 NE6       30.03S
DODGE CENTER   MOSUNNY   73  61  64 CALM      30.04R
PRESTON        CLOUDY    71  62  73 N5        30.02S
OWATONNA       SUNNY     75  52  43 NE7       30.03S
FARIBAULT      SUNNY     73  54  49 NE6       30.03S
$$

...ELSEWHERE IN MINNESOTA...


CITY           SKY/WX    TMP DP  RH WIND       PRES   REMARKS
MINNEAPOLIS    MOSUNNY   77  52  41 NE8       30.02F
INTNL FALLS    PTSUNNY   75  58  55 SE5       30.02F
DULUTH         MOSUNNY   68  51  54 SE10      30.07S
RED WING       SUNNY     77  50  38 NE3       30.00F
REDWOOD FALLS  MOSUNNY   78  53  41 VRB3      30.02F
MANKATO        SUNNY     75  52  43 N9        30.03S
WORTHINGTON    SUNNY     74  55  51 NE9       30.05F
FAIRMONT       SUNNY     73  57  56 N7        30.02S
$$

...SOUTHWEST WISCONSIN...


CITY           SKY/WX    TMP DP  RH WIND       PRES   REMARKS
LA CROSSE      LGT RAIN  71  66  84 E5        30.00R
PRAIRIE DU CHI CLOUDY    71  65  81 NE3       29.98S
BOSCOBEL       CLOUDY    70  67  90 CALM      29.99S
LONE ROCK      CLOUDY    71  65  81 N7        29.99S
PLATTEVILLE    CLOUDY    71  69  93 N9        29.98S
FORT MC COY    CLOUDY    71  64  80 E5        30.02S
CAMP DOUGLAS   CLOUDY    69  66  88 NE2       30.01S
MAUSTON-NEW LI CLOUDY    69  66  89 CALM      30.01S
VIROQUA        CLOUDY    69  64  85 E7        30.02S
WIS DELLS      CLOUDY    68  65  90 CALM      30.00S
$$

...ELSEWHERE IN WISCONSIN...


CITY           SKY/WX    TMP DP  RH WIND       PRES   REMARKS
MILWAUKEE      CLOUDY    72  65  78 N12       29.98R
MADISON        CLOUDY    72  63  73 NE12      29.98S
GREEN BAY      PTSUNNY   72  57  59 E8        30.02S
EAU CLAIRE     MOSUNNY   76  60  57 E6        30.01S
BLACK RVR FLS  CLOUDY    73  63  72 E5        30.01S
MEDFORD        SUNNY     72  62  71 E3        30.05R
WAUSAU         CLOUDY    71  61  70 E7        30.03S
WIS RAPIDS     CLOUDY    71  62  73 E5        30.04S
MARSHFIELD     CLOUDY    73  60  63 E6        30.03S
RICE LAKE      SUNNY     75  53  46 N6        30.04F
$$

...NORTHEAST IOWA...


CITY           SKY/WX    TMP DP  RH WIND       PRES   REMARKS
WATERLOO       CLOUDY    70  64  81 NE8       29.98S
DUBUQUE        CLOUDY    70  66  87 N8        29.98S
DECORAH        LGT RAIN  68  68 100 CALM      30.00S
MASON CITY     CLOUDY    71  62  73 NE3       30.03S
CHARLES CITY   CLOUDY    72  66  83 NE5G12    30.01S
OELWEIN        CLOUDY    70  66  88 NE9       30.00S
$$

...ELSEWHERE IN IOWA...


CITY           SKY/WX    TMP DP  RH WIND       PRES   REMARKS
DES MOINES     LGT RAIN  71  64  78 N6        29.99S
IOWA CITY      CLOUDY    73  66  78 N13       29.96R
FORT DODGE     CLOUDY    70  63  78 N6        30.02F
MARSHALLTOWN   CLOUDY    71  65  81 NE9       29.98S
CEDAR RAPIDS   CLOUDY    70  68  93 N9        29.96R
$$

...NORTHERN ILLINOIS...


CITY           SKY/WX    TMP DP  RH WIND       PRES   REMARKS
CHICAGO-OHARE  CLOUDY    73  68  84 N14       29.93S
CHICAGO-MIDWAY CLOUDY    75  66  73 NE7       29.92S
MOLINE         MOSUNNY   78  67  68 N5        29.92S
ROCKFORD       CLOUDY    71  67  87 E10       29.97R
PEORIA         SUNNY     79  67  66 W8        29.92S
$$

NOTE: "FAIR" INDICATES FEW OR NO CLOUDS BELOW 12,000 FEET WITH NO
SIGNIFICANT WEATHER AND/OR OBSTRUCTIONS TO VISIBILITY. WIND
SPEEDS ARE IN MILES-PER-HOUR.




USA.gov is the U.S. government's official web portal to all federal, state and local government web resources and services.